Wind_Speed
35 36 36 37 37 37 38 39 39 39 40 40 41 41 41 41 41 42 41 41 42 43 42 42 42 42 41 42 42 42 42 42 42 41 42 42 42 42 41 39 38 38 38
34 35 35 36 36 36 38 39 40 40 40 40 40 40 40 40 40 40 41 41 42 43 43 43 42 42 42 42 43 43 42 42 42 41 41 42 42 42 41 40 39 39 39
34 34 35 35 36 36 37 38 39 40 40 40 39 39 39 39 39 40 41 41 41 42 42 42 42 42 42 42 43 42 42 41 41 41 41 41 41 41 41 40 39 39 38
33 34 34 35 35 37 38 39 39 39 40 40 39 39 39 39 40 40 40 40 40 41 41 41 41 42 42 42 42 42 42 41 41 41 41 40 40 40 40 40 39 39 39
32 33 35 35 36 37 38 38 39 39 39 39 39 39 39 40 40 40 39 40 40 40 40 40 40 41 42 42 42 41 42 42 41 41 41 40 40 39 39 39 39 39 39
31 32 34 35 36 37 37 37 38 38 39 39 39 39 39 39 39 39 40 39 40 40 40 40 41 42 42 42 42 41 41 41 41 41 41 40 39 38 39 39 39 39 39
31 31 32 34 35 35 35 36 36 37 38 38 38 39 39 39 39 39 40 39 39 39 40 41 41 41 41 41 41 41 41 41 40 40 39 38 38 38 38 38 38 37 37
31 31 31 32 33 33 34 34 35 36 37 37 37 38 38 38 38 38 39 39 39 40 40 41 41 41 41 41 40 40 39 39 38 38 37 36 36 36 36 36 36 36 36
31 30 30 31 32 32 33 33 34 35 36 36 37 37 37 37 37 38 39 39 39 39 40 40 41 41 40 40 39 38 38 38 37 36 35 35 35 35 36 36 36 35 35
31 31 31 31 31 31 31 32 32 33 34 34 35 35 35 36 36 37 38 38 38 38 39 39 40 39 38 38 38 37 37 37 36 35 35 35 35 35 35 35 36 36 36
31 31 31 31 31 32 31 31 31 31 32 32 32 33 33 34 35 36 36 37 37 37 37 37 37 37 37 36 36 36 36 36 35 35 35 35 35 35 35 35 35 36 35
31 31 31 31 32 31 31 30 30 30 31 31 32 32 32 34 35 36 37 37 37 37 36 35 35 35 36 36 36 36 36 35 34 34 34 35 35 35 35 34 34 34 34
31 31 31 31 30 30 30 30 29 30 30 30 30 30 31 33 34 35 35 35 35 35 35 35 34 34 35 35 35 35 34 34 33 34 34 34 34 34 34 34 33 33 33
31 31 31 31 30 30 29 29 29 29 30 30 31 31 31 32 32 32 32 33 33 33 33 34 34 34 34 33 33 33 32 32 32 32 32 33 33 32 32 31 31 31 31
31 31 31 31 31 30 29 29 30 30 29 29 30 31 31 30 30 31 31 31 31 31 32 33 33 32 32 32 31 31 31 32 32 31 31 31 31 31 30 30 30 29 29
30 30 30 30 30 30 29 28 28 29 30 30 30 31 30 30 30 30 30 30 30 31 30 30 30 30 30 30 30 31 31 31 31 31 31 30 30 29 29 29 28 28 27
30 30 30 30 29 29 29 29 28 28 29 29 30 30 30 30 29 29 30 29 29 29 28 28 28 27 27 27 28 29 29 30 30 30 29 29 28 28 28 27 26 26 25
28 29 29 29 29 29 29 29 29 29 29 29 30 30 30 30 30 29 29 28 27 27 26 26 26 26 26 26 26 27 27 27 27 26 26 26 26 26 26 25 25 24 24
27 28 28 29 29 29 29 29 30 30 30 29 29 29 30 30 29 29 27 26 25 25 25 25 26 26 26 26 26 26 26 25 25 25 25 25 25 25 24 24 24 23 23
27 27 27 28 29 29 29 29 30 30 29 29 29 29 29 29 28 27 25 25 25 25 25 25 25 25 25 25 25 25 24 24 24 24 24 23 23 23 23 23 22 22 22
26 27 27 27 28 29 29 29 29 29 29 28 28 28 28 27 27 26 25 25 25 24 24 24 24 24 24 25 24 24 23 23 23 23 23 22 22 22 22 21 21 21 21
26 26 27 27 28 28 28 28 28 29 29 28 28 27 27 26 26 25 25 25 25 24 23 23 23 23 24 23 23 23 22 22 22 22 22 21 21 21 21 21 21 21 21
27 26 27 27 27 28 28 28 28 28 28 28 27 27 26 26 25 25 25 25 24 24 23 23 23 23 23 23 22 22 22 21 21 21 21 21 21 21 21 21 21 20 20
26 26 26 27 27 28 28 28 28 28 27 27 27 27 26 26 25 25 24 24 24 23 23 23 23 23 23 23 22 22 22 21 21 20 20 20 20 20 20 20 20 20 20
26 26 26 26 26 26 25 25 25 26 26 26 26 25 25 25 25 25 24 24 24 23 23 23 23 23 22 22 21 21 21 21 21 20 20 19 18 18 18 18 18 18 18
23 24 23 23 23 23 23 23 24 24 24 24 24 24 24 24 25 24 24 23 23 23 23 22 22 22 22 21 20 20 20 20 20 19 18 18 17 17 16 17 17 17 17
Wind_Direction
250 250 252 253 253 254 255 255 255 256 257 258 260 261 261 261 263 265 266 268 269 270 270 271 273 274 275 277 280 282 282 281 281 281 281 281 282 282 281 281 282 283 284
251 252 253 253 254 255 255 255 255 256 257 258 260 259 259 261 263 264 266 268 270 271 272 273 275 275 276 278 280 282 281 281 281 281 281 281 281 281 280 280 281 282 283
252 253 254 255 256 257 257 256 256 256 257 258 259 260 260 262 265 266 267 268 271 272 273 274 275 276 277 279 281 281 281 281 282 282 281 281 282 282 280 280 281 282 283
253 253 254 256 258 258 258 258 257 258 258 259 260 261 262 264 266 266 267 269 271 272 273 274 275 276 278 280 281 281 281 281 281 281 281 281 282 282 282 282 282 283 284
254 255 255 256 258 258 260 259 259 259 259 260 261 262 264 265 267 267 267 270 271 272 272 273 274 277 278 279 281 281 281 281 280 280 280 281 282 282 282 282 283 283 283
257 258 258 258 259 260 261 260 260 260 260 260 262 263 265 266 267 267 267 269 270 271 272 273 275 277 278 279 280 281 281 280 280 280 280 280 282 281 281 282 283 282 282
259 260 261 261 261 262 261 261 261 261 261 261 263 265 266 266 267 266 266 269 270 271 272 273 274 275 277 278 280 280 280 280 280 279 280 280 281 281 282 283 283 282 281
261 262 262 262 262 264 264 263 262 262 262 263 264 265 266 266 267 267 267 269 270 272 274 274 274 275 277 278 278 279 280 280 280 279 280 280 281 282 283 283 282 282 281
262 263 263 263 263 264 265 264 264 264 264 264 265 265 265 265 265 266 268 270 271 273 274 274 275 275 276 277 278 278 278 278 277 278 279 280 281 282 283 283 282 282 281
260 262 264 264 265 265 266 266 266 266 265 265 265 265 265 265 265 268 269 270 271 273 275 275 275 275 275 276 277 276 276 276 276 277 278 279 281 283 283 284 283 282 281
260 262 263 264 265 265 266 266 266 266 266 265 264 265 266 267 267 269 271 271 272 274 274 274 273 274 274 275 275 275 275 275 275 275 277 279 280 282 283 283 283 283 283
261 262 264 265 265 264 265 265 266 267 267 265 265 266 268 269 270 270 272 273 272 273 273 272 272 273 274 275 275 275 275 276 275 276 277 278 280 282 283 282 283 283 283
262 263 264 264 264 264 264 264 266 266 266 266 266 268 269 271 271 272 272 273 272 272 271 270 271 272 274 275 276 275 275 275 276 277 277 278 280 281 282 282 282 283 283
261 262 263 264 263 264 264 263 265 266 267 267 266 268 270 272 272 273 274 273 272 272 271 271 272 273 274 275 275 274 274 274 275 277 278 279 280 280 281 281 281 283 283
262 261 262 263 263 263 264 264 264 265 267 267 267 268 270 272 273 274 274 274 273 273 272 271 271 272 273 274 274 274 274 274 276 277 279 280 280 280 280 281 281 283 284
262 262 262 262 263 263 263 264 265 267 267 268 268 268 269 271 272 273 273 274 274 274 274 273 272 272 273 274 274 275 276 277 278 279 279 279 279 279 280 281 282 283 285
264 262 261 262 263 263 263 263 265 266 268 269 270 270 269 270 272 273 274 274 274 274 274 274 274 274 275 275 276 276 277 278 278 279 279 278 277 278 279 280 281 282 283
265 263 262 263 264 263 263 263 264 267 268 269 270 270 269 270 272 273 273 273 273 274 274 275 275 274 276 278 278 277 278 279 280 279 279 278 277 277 279 278 279 280 282
266 265 264 263 264 264 265 265 265 268 269 269 269 269 269 269 270 271 271 271 272 274 275 275 276 277 277 279 280 278 278 279 280 279 279 278 277 277 278 277 278 279 281
266 266 265 265 265 266 267 266 266 268 269 269 270 270 268 269 269 269 269 270 272 273 273 275 277 278 277 278 279 278 278 279 280 280 279 278 277 277 276 277 278 280 282
268 268 268 268 268 268 268 267 266 266 267 268 269 269 267 267 267 266 267 269 271 272 272 274 275 276 276 278 279 279 279 280 281 280 278 276 276 275 276 278 280 280 281
269 270 270 269 269 268 268 267 265 265 265 267 267 266 265 264 264 265 267 268 269 270 270 272 274 275 276 278 278 278 279 280 280 279 276 275 275 275 276 278 279 279 281
271 270 270 270 269 268 267 266 266 265 265 265 264 263 262 262 264 266 266 267 267 268 268 270 272 273 277 277 277 276 277 279 279 279 276 275 275 275 276 277 277 279 280
272 271 272 271 270 269 268 267 266 265 264 263 262 260 259 260 262 264 265 265 265 266 266 269 271 273 276 276 275 274 274 277 278 279 277 276 276 276 276 277 278 279 279
273 274 275 273 271 269 267 266 265 264 263 262 260 259 258 258 260 262 263 264 264 264 265 268 270 272 275 275 275 274 275 276 277 278 277 276 276 275 276 278 278 279 280
274 275 274 272 271 270 268 266 265 264 263 261 259 258 258 258 259 260 261 262 262 263 265 267 269 271 273 273 273 274 275 276 277 276 276 275 274 275 277 278 278 279 281
Height
5625 5629 5632 5634 5637 5639 5642 5644 5646 5648 5650 5651 5653 5654 5655 5657 5658 5660 5661 5662 5662 5663 5663 5663 5663 5662 5662 5661 5660 5659 5658 5656 5656 5655 5653 5651 5649 5647 5645 5644 5642 5640 5638
5617 5620 5623 5625 5628 5630 5632 5634 5636 5638 5640 5641 5643 5644 5645 5646 5648 5649 5650 5651 5652 5652 5652 5652 5651 5651 5651 5650 5649 5648 5647 5645 5644 5643 5642 5640 5638 5636 5634 5633 5631 5630 5628
5609 5611 5614 5616 5618 5620 5622 5624 5626 5627 5629 5631 5632 5634 5635 5636 5637 5638 5640 5641 5641 5641 5641 5641 5640 5640 5639 5639 5638 5637 5635 5634 5633 5632 5631 5629 5627 5625 5624 5622 5620 5619 5617
5600 5602 5605 5607 5609 5611 5612 5614 5615 5617 5619 5621 5622 5624 5625 5626 5627 5627 5629 5629 5630 5630 5630 5629 5629 5629 5628 5627 5626 5625 5624 5623 5621 5620 5619 5618 5616 5614 5613 5611 5609 5608 5606
5591 5593 5595 5597 5599 5601 5602 5603 5605 5607 5608 5610 5612 5613 5614 5615 5616 5616 5617 5618 5618 5619 5618 5618 5618 5617 5617 5616 5615 5614 5612 5611 5610 5609 5608 5606 5605 5603 5602 5600 5598 5596 5595
5583 5584 5586 5587 5589 5591 5592 5593 5595 5596 5598 5599 5601 5602 5603 5604 5604 5605 5606 5607 5607 5607 5607 5607 5607 5606 5605 5604 5603 5602 5601 5600 5599 5597 5596 5595 5594 5592 5591 5589 5587 5586 5584
5574 5575 5577 5578 5580 5581 5582 5583 5584 5585 5587 5589 5590 5591 5592 5593 5593 5594 5594 5595 5596 5596 5596 5595 5595 5594 5593 5593 5592 5591 5589 5588 5587 5586 5585 5584 5583 5581 5580 5578 5576 5574 5572
5565 5566 5568 5569 5570 5571 5572 5573 5574 5575 5576 5578 5579 5580 5581 5581 5582 5583 5583 5584 5585 5585 5584 5584 5583 5582 5582 5581 5580 5579 5578 5577 5576 5575 5574 5573 5572 5570 5569 5567 5565 5563 5562
5556 5558 5559 5560 5561 5562 5563 5563 5564 5565 5566 5567 5568 5569 5570 5571 5571 5572 5572 5573 5573 5573 5573 5572 5571 5571 5570 5569 5569 5568 5567 5566 5565 5564 5563 5562 5561 5560 5558 5556 5554 5553 5552
5548 5549 5550 5551 5552 5553 5554 5554 5555 5555 5556 5557 5558 5558 5559 5560 5560 5561 5561 5562 5562 5562 5561 5561 5560 5559 5559 5558 5557 5557 5556 5556 5555 5554 5553 5552 5551 5549 5548 5546 5544 5542 5541
5538 5540 5541 5542 5543 5544 5545 5545 5546 5546 5547 5547 5548 5549 5549 5550 5550 5550 5550 5551 5550 5550 5550 5550 5549 5549 5548 5548 5547 5547 5546 5545 5545 5544 5543 5542 5541 5539 5538 5536 5534 5532 5530
5529 5531 5532 5533 5534 5535 5536 5536 5536 5537 5537 5538 5538 5539 5539 5539 5540 5540 5540 5540 5539 5539 5539 5539 5539 5539 5538 5537 5537 5536 5535 5535 5534 5534 5533 5532 5531 5529 5527 5525 5523 5522 5520
5520 5522 5523 5524 5525 5526 5526 5527 5527 5527 5528 5528 5529 5529 5530 5530 5530 5529 5529 5528 5528 5528 5528 5529 5529 5528 5528 5527 5526 5526 5525 5525 5524 5523 5522 5522 5520 5519 5517 5516 5514 5512 5511
5511 5513 5514 5515 5516 5516 5517 5517 5518 5518 5519 5519 5520 5520 5520 5520 5520 5519 5518 5518 5518 5518 5518 5518 5518 5518 5518 5517 5517 5516 5515 5515 5514 5513 5512 5511 5510 5509 5507 5506 5504 5503 5502
5502 5503 5504 5505 5506 5507 5508 5508 5509 5509 5509 5510 5510 5510 5510 5510 5510 5509 5508 5508 5508 5508 5508 5508 5509 5508 5508 5508 5507 5506 5506 5505 5504 5503 5502 5501 5500 5499 5498 5497 5495 5494 5493
5493 5494 5495 5496 5497 5498 5498 5499 5499 5500 5500 5500 5500 5500 5500 5500 5499 5499 5499 5499 5499 5499 5499 5499 5499 5499 5499 5498 5498 5497 5496 5495 5494 5493 5492 5491 5491 5490 5489 5488 5487 5486 5485
5483 5484 5485 5486 5487 5488 5489 5490 5491 5491 5491 5491 5490 5490 5490 5490 5490 5490 5490 5490 5490 5490 5490 5490 5490 5490 5490 5489 5489 5488 5487 5486 5485 5484 5483 5482 5482 5481 5481 5480 5479 5478 5477
5474 5475 5476 5477 5478 5478 5479 5480 5481 5481 5482 5482 5482 5481 5481 5481 5481 5481 5481 5481 5482 5482 5482 5482 5482 5482 5481 5481 5480 5479 5479 5478 5477 5475 5475 5474 5474 5473 5473 5472 5471 5470 5469
5465 5465 5466 5467 5468 5469 5470 5470 5471 5472 5472 5472 5472 5472 5472 5472 5472 5472 5473 5473 5474 5474 5474 5474 5474 5474 5473 5473 5472 5471 5471 5470 5469 5468 5467 5467 5466 5466 5465 5465 5464 5463 5462
5456 5456 5457 5458 5459 5460 5460 5461 5461 5462 5463 5463 5463 5463 5463 5463 5464 5465 5465 5466 5466 5466 5466 5466 5466 5466 5465 5465 5464 5464 5463 5462 5462 5461 5460 5460 5459 5459 5458 5458 5457 5457 5456
5447 5448 5448 5449 5450 5450 5451 5452 5452 5453 5453 5454 5454 5454 5454 5455 5456 5456 5457 5458 5458 5458 5458 5458 5458 5458 5458 5457 5457 5456 5456 5455 5455 5454 5453 5453 5452 5452 5451 5451 5450 5450 5449
5438 5439 5440 5440 5441 5441 5442 5442 5443 5443 5444 5444 5444 5445 5445 5446 5447 5448 5449 5450 5450 5450 5451 5451 5451 5451 5450 5450 5449 5449 5449 5448 5448 5447 5447 5446 5446 5446 5445 5445 5444 5444 5443
5430 5431 5431 5432 5432 5432 5433 5433 5433 5434 5434 5435 5435 5436 5437 5438 5439 5440 5441 5441 5442 5442 5443 5443 5444 5444 5443 5443 5442 5442 5442 5442 5441 5441 5440 5440 5440 5439 5439 5438 5438 5438 5437
5422 5422 5423 5423 5423 5423 5423 5424 5424 5425 5425 5426 5426 5427 5428 5430 5431 5432 5433 5433 5434 5435 5435 5436 5436 5436 5436 5436 5436 5435 5435 5435 5435 5435 5434 5434 5433 5433 5433 5432 5432 5431 5431
5414 5414 5414 5414 5414 5414 5415 5415 5415 5416 5416 5417 5418 5419 5420 5421 5422 5424 5425 5426 5426 5427 5428 5428 5429 5429 5429 5429 5429 5429 5429 5429 5428 5428 5428 5427 5427 5427 5427 5426 5426 5426 5425
5406 5406 5406 5406 5406 5406 5406 5407 5407 5408 5408 5409 5410 5411 5412 5413 5414 5416 5417 5418 5419 5420 5420 5421 5421 5422 5422 5422 5422 5422 5422 5422 5422 5422 5422 5422 5422 5421 5421 5421 5421 5421 5420